This is the latest recevied weather packets stored in our database for station/object WB6ANP. If no packets are shown the sender has not sent any weather packets the latest 10 day(s).
| Time | Temp. | Humidity | Pressure | Rain* | Wind** | Luminosity | Snow |
|---|---|---|---|---|---|---|---|
| 1777653880 | 15.56° C | 71% | 1016.8 hPa | 0 mm | - | 792 W/m² | - |
| 1777653577 | 15° C | 72% | 1016.8 hPa | 0 mm | - | 556 W/m² | - |
| 1777653273 | 14.44° C | 75% | 1017.1 hPa | 0 mm | - | 349 W/m² | - |
| 1777652970 | 14.44° C | 79% | 1017.2 hPa | 0 mm | - | 320 W/m² | - |
| 1777652666 | 14.44° C | 79% | 1017 hPa | 0 mm | - | 340 W/m² | - |
| 1777652363 | 14.44° C | 81% | 1017.1 hPa | 0 mm | - | 214 W/m² | - |
| 1777652060 | 14.44° C | 82% | 1017 hPa | 0 mm | - | 274 W/m² | - |
| 1777651757 | 14.44° C | 84% | 1017 hPa | 0 mm | - | 200 W/m² | - |
| 1777651453 | 14.44° C | 84% | 1017 hPa | 0 mm | - | 246 W/m² | - |
| 1777651151 | 14.44° C | 85% | 1017.1 hPa | 0 mm | - | 328 W/m² | - |
| 1777650848 | 13.89° C | 87% | 1017.1 hPa | 0 mm | - | 260 W/m² | - |
| 1777650544 | 13.89° C | 88% | 1017 hPa | 0 mm | - | 184 W/m² | - |
| 1777650242 | 13.89° C | 89% | 1016.9 hPa | 0 mm | - | 193 W/m² | - |
| 1777649939 | 13.89° C | 89% | 1017.1 hPa | 0 mm | - | 172 W/m² | - |
| 1777649636 | 13.89° C | 91% | 1017.4 hPa | 0 mm | - | 79 W/m² | - |
| 1777649332 | 13.89° C | 90% | 1017 hPa | 0 mm | - | 93 W/m² | - |
| 1777649030 | 13.89° C | 91% | 1017 hPa | 0 mm | - | 113 W/m² | - |
| 1777648727 | 13.89° C | 91% | 1016.9 hPa | 0 mm | - | 153 W/m² | - |
| 1777648423 | 13.33° C | 92% | 1016.8 hPa | 0 mm | - | 143 W/m² | - |
| 1777648119 | 13.33° C | 92% | 1016.9 hPa | 0 mm | - | 121 W/m² | - |
| 1777647816 | 13.33° C | 92% | 1017.2 hPa | 0 mm | - | 42 W/m² | - |
| 1777647512 | 13.33° C | 92% | 1016.9 hPa | 0 mm | - | 57 W/m² | - |
| 1777647209 | 13.33° C | 92% | 1016.6 hPa | 0 mm | - | 95 W/m² | - |
| 1777646906 | 13.33° C | 93% | 1016.6 hPa | 0 mm | - | 95 W/m² | - |
| 1777646601 | 13.33° C | 93% | 1016.8 hPa | 0 mm | - | 57 W/m² | - |
* Rain latest hour (hover to see other rain measurements)
** Current wind speed in m/s (hover to see current wind gust speed)